STARLINK-2417

Last updated on Sat May 08 2021 00:02:03 GMT+0000 (Coordinated Universal Time)

1 48096U 21027E 21127.58334491 -.00056366 00000-0 -39888-3 0 9996 2 48096 53.0474 191.7400 0002391 16.9354 289.3176 15.73249809 1776

Satellite not in orbit

STARLINK-2417